GAOFEN 9-03 (45794 NORAD) Tracking and Keplerian Element Data

This shows tracking and keplerian element data for the satellite.

Feedback or suggestion? Click here.




ElementValue
Catalog45794
NameGAOFEN 9-03
Epoch Orbit346
Epoch Day192.12392361
Epoch Year2020
RAAN313.1558
Inclination97.3245
Eccentricity0.0015721
Argument of Perigee191.8328
Mean Anonmoly155.4647
Mean Motion15.24507217
Decay Rate4.71E-06
L11 45794U 20039A 20192.12392361 .00000471 00000-0 21967-4 0 9995
L22 45794 97.3245 313.1558 0015721 191.8328 155.4647 15.24507217 3464

Live tracking and technical data element details for GAOFEN 9-03 (NORAD 45794). GAOFEN 9-03 can be tracked NOW for your location showing map with azimuth and elevation plus other details from your city location.

Track the satellite on the map from your city or location and see movement details for azimuth, elevation, latitude, longitude, range, height, and movement on the map or in text.







IsCatalogInMostPopularTable: catalog: 45794, numindb: 6
Update: records affected: 1



GetName: 45794 GAOFEN 9-03

Hit Count: updated at: Fri, 10 Jul 2020 15:17:49 GMT